Time,TemperatureF,DewpointF,PressureIn,WindDirection,WindDirectionDegrees,WindSpeedMPH,WindSpeedGustMPH,Humidity,HourlyPrecipIn,Conditions,Clouds,dailyrainin,SoftwareType,DateUTC
2013-05-22 00:01:00,78.0,61.0,29.88,West,259,2.0,5.0,56,0.00,,,0.00,,2013-05-21 21:01:00,
2013-05-22 00:11:00,78.0,61.0,29.88,West,259,2.0,5.0,56,0.00,,,0.00,,2013-05-21 21:11:00,
2013-05-22 00:21:00,78.0,60.0,29.88,West,259,0.0,3.0,54,0.00,,,0.04,,2013-05-21 21:21:00,
2013-05-22 00:32:00,78.0,60.0,29.88,West,259,0.0,3.0,54,0.00,,,0.04,,2013-05-21 21:32:00,
2013-05-22 00:43:00,78.0,56.0,29.88,West,270,3.0,6.0,47,0.00,,,0.04,,2013-05-21 21:43:00,
2013-05-22 00:53:00,78.0,56.0,29.88,West,270,3.0,6.0,47,0.00,,,0.04,,2013-05-21 21:53:00,
2013-05-22 01:02:00,78.0,56.0,29.88,West,270,3.0,6.0,47,0.00,,,0.04,,2013-05-21 22:02:00,
2013-05-22 01:12:00,78.0,56.0,29.88,West,270,3.0,6.0,47,0.00,,,0.04,,2013-05-21 22:12:00,
2013-05-22 01:22:00,78.0,56.0,29.85,West,267,1.0,5.0,46,0.00,,,0.04,,2013-05-21 22:22:00,
2013-05-22 01:33:00,78.0,56.0,29.85,West,267,1.0,5.0,46,0.00,,,0.04,,2013-05-21 22:33:00,
2013-05-22 01:42:00,78.0,56.0,29.85,West,267,0.0,3.0,46,0.00,,,0.04,,2013-05-21 22:42:00,
2013-05-22 01:52:00,78.0,56.0,29.85,West,267,0.0,3.0,46,0.00,,,0.04,,2013-05-21 22:52:00,
2013-05-22 02:00:00,78.0,56.0,29.85,West,267,0.0,0.0,46,0.00,,,0.04,,2013-05-21 23:00:00,
2013-05-22 02:02:00,78.0,56.0,29.85,West,267,0.0,3.0,46,0.00,,,0.04,,2013-05-21 23:02:00,
2013-05-22 02:12:00,78.0,56.0,29.85,West,267,0.0,3.0,46,0.00,,,0.04,,2013-05-21 23:12:00,
2013-05-22 02:22:00,78.0,56.0,29.85,West,267,0.0,0.0,46,0.00,,,0.04,,2013-05-21 23:22:00,
2013-05-22 02:32:00,78.0,56.0,29.85,West,267,0.0,0.0,46,0.00,,,0.04,,2013-05-21 23:32:00,
2013-05-22 02:42:00,78.0,56.0,29.85,West,267,0.0,0.0,46,0.00,,,0.04,,2013-05-21 23:42:00,
2013-05-22 02:52:00,78.0,56.0,29.85,West,267,0.0,0.0,46,0.00,,,0.04,,2013-05-21 23:52:00,
2013-05-22 16:42:00,83.0,61.0,29.77,WSW,253,2.0,7.0,47,0.00,,,0.04,,2013-05-22 13:42:00,
2013-05-22 16:52:00,83.0,61.0,29.77,WSW,253,2.0,7.0,47,0.00,,,0.04,,2013-05-22 13:52:00,
2013-05-22 17:02:00,83.0,61.0,29.77,WSW,253,2.0,7.0,47,0.00,,,0.04,,2013-05-22 14:02:00,
2013-05-22 17:11:00,85.0,50.0,29.77,SSW,212,3.0,9.0,30,0.00,,,0.04,,2013-05-22 14:11:00,
2013-05-22 17:21:00,85.0,50.0,29.77,SSW,212,3.0,9.0,30,0.00,,,0.04,,2013-05-22 14:21:00,
2013-05-22 17:32:00,85.0,50.0,29.77,SSW,212,3.0,9.0,30,0.00,,,0.04,,2013-05-22 14:32:00,
2013-05-22 17:42:00,85.0,50.0,29.77,SSW,212,3.0,9.0,30,0.00,,,0.04,,2013-05-22 14:42:00,
2013-05-22 17:52:00,86.0,51.0,29.74,WSW,247,6.0,9.0,30,0.00,,,0.04,,2013-05-22 14:52:00,
2013-05-22 18:01:00,86.0,51.0,29.74,WSW,247,6.0,9.0,30,0.00,,,0.04,,2013-05-22 15:01:00,
2013-05-22 18:11:00,86.0,51.0,29.74,WSW,247,6.0,9.0,30,0.00,,,0.04,,2013-05-22 15:11:00,
2013-05-22 18:21:00,82.0,52.0,29.77,SW,235,5.0,13.0,36,0.00,,,0.04,,2013-05-22 15:21:00,
2013-05-22 18:32:00,82.0,52.0,29.77,SW,235,5.0,13.0,36,0.00,,,0.04,,2013-05-22 15:32:00,
2013-05-22 18:43:00,82.0,52.0,29.77,SW,235,5.0,13.0,36,0.00,,,0.04,,2013-05-22 15:43:00,
2013-05-22 18:53:00,81.0,55.0,29.77,SSW,200,3.0,9.0,41,0.00,,,0.04,,2013-05-22 15:53:00,
2013-05-22 19:02:00,81.0,55.0,29.77,SSW,200,3.0,9.0,41,0.00,,,0.04,,2013-05-22 16:02:00,
2013-05-22 19:12:00,81.0,55.0,29.77,SSW,200,3.0,9.0,41,0.00,,,0.04,,2013-05-22 16:12:00,
2013-05-22 19:22:00,81.0,55.0,29.74,East,91,5.0,9.0,41,0.00,,,0.04,,2013-05-22 16:22:00,
2013-05-22 19:32:00,81.0,55.0,29.74,East,91,5.0,9.0,41,0.00,,,0.04,,2013-05-22 16:32:00,
2013-05-22 19:42:00,81.0,55.0,29.74,East,91,5.0,9.0,41,0.00,,,0.04,,2013-05-22 16:42:00,
2013-05-22 19:52:00,81.0,52.0,29.74,WSW,253,5.0,9.0,37,0.00,,,0.04,,2013-05-22 16:52:00,
2013-05-22 20:02:00,81.0,52.0,29.74,WSW,253,5.0,9.0,37,0.00,,,0.04,,2013-05-22 17:02:00,
2013-05-22 20:11:00,80.0,51.0,29.74,SW,225,5.0,12.0,37,0.00,,,0.04,,2013-05-22 17:11:00,
2013-05-22 20:22:00,80.0,51.0,29.74,SW,225,5.0,12.0,37,0.00,,,0.04,,2013-05-22 17:22:00,
2013-05-22 20:32:00,80.0,51.0,29.74,SW,225,5.0,12.0,37,0.00,,,0.04,,2013-05-22 17:32:00,
2013-05-22 20:42:00,80.0,51.0,29.74,SW,225,5.0,12.0,37,0.00,,,0.04,,2013-05-22 17:42:00,
2013-05-22 20:53:00,79.0,55.0,29.74,SSW,208,5.0,10.0,43,0.00,,,0.04,,2013-05-22 17:53:00,
2013-05-22 21:02:00,79.0,55.0,29.74,SSW,208,5.0,10.0,43,0.00,,,0.04,,2013-05-22 18:02:00,
2013-05-22 21:14:00,79.0,55.0,29.74,SSW,208,5.0,10.0,43,0.00,,,0.04,,2013-05-22 18:14:00,
2013-05-22 21:22:00,79.0,56.0,29.77,South,184,4.0,7.0,45,0.00,,,0.04,,2013-05-22 18:22:00,
2013-05-22 21:33:00,79.0,56.0,29.77,South,184,4.0,7.0,45,0.00,,,0.04,,2013-05-22 18:33:00,
2013-05-22 21:42:00,79.0,56.0,29.77,South,184,4.0,7.0,45,0.00,,,0.04,,2013-05-22 18:42:00,
2013-05-22 21:52:00,79.0,56.0,29.71,WSW,258,5.0,9.0,45,0.00,,,0.04,,2013-05-22 18:52:00,
2013-05-22 22:02:00,79.0,56.0,29.71,WSW,258,5.0,9.0,45,0.00,,,0.04,,2013-05-22 19:02:00,
2013-05-22 22:11:00,78.0,54.0,29.71,WSW,253,2.0,8.0,44,0.00,,,0.04,,2013-05-22 19:11:00,
2013-05-22 22:21:00,78.0,54.0,29.71,WSW,253,2.0,8.0,44,0.00,,,0.04,,2013-05-22 19:21:00,
2013-05-22 22:31:00,78.0,54.0,29.71,WSW,253,2.0,8.0,44,0.00,,,0.04,,2013-05-22 19:31:00,
2013-05-22 22:42:00,78.0,54.0,29.71,SSW,193,5.0,12.0,43,0.00,,,0.04,,2013-05-22 19:42:00,
2013-05-22 22:52:00,78.0,54.0,29.71,SSW,193,5.0,12.0,43,0.00,,,0.04,,2013-05-22 19:52:00,
2013-05-22 23:01:00,78.0,54.0,29.71,SSW,193,5.0,12.0,43,0.00,,,0.04,,2013-05-22 20:01:00,
2013-05-22 23:11:00,78.0,52.0,29.74,SSW,200,5.0,15.0,41,0.00,,,0.04,,2013-05-22 20:11:00,
2013-05-22 23:21:00,78.0,52.0,29.74,SSW,200,5.0,15.0,41,0.00,,,0.04,,2013-05-22 20:21:00,
2013-05-22 23:32:00,78.0,52.0,29.74,SSW,200,5.0,15.0,41,0.00,,,0.04,,2013-05-22 20:32:00,
2013-05-22 23:42:00,78.0,53.0,29.74,WSW,248,5.0,13.0,42,0.00,,,0.04,,2013-05-22 20:42:00,
2013-05-22 23:52:00,78.0,53.0,29.74,WSW,248,5.0,13.0,42,0.00,,,0.04,,2013-05-22 20:52:00,